Flag for Germany Weather past 2 weeks in Mülheim, North Rhine-Westphalia, Germany

Now
54 °F

Clear.


Feels Like: 51 °F
Forecast: 50 / 58 °F
Wind: 8 mph from Southeast

Location: Koeln / Bonn

Current Time: Oct 24, 2014 at 9:00:10 PM

Latest Report: Oct 24, 2014 at 8:20 PM


Visibility: 10 mi

Pressure: 30.07 "Hg

Humidity: 77%

Dew point: 46 °F

Location of MülheimLocation

Historic Weather in Mülheim — Graph

°F

Mülheim temperature yesterday

Maximum temperature yesterday: 55 °F (at 1:20 PM)
Minimum temperature yesterday: 45 °F (at 3:50 AM)
Average temperature yesterday: 50 °F

Past Weeks' High & Low Weather Summary

 TemperatureHumidityPressure
High75 °F (Oct 19, 1:50 PM)100% (Oct 11, 3:50 AM)30.24 "Hg (Oct 11, 3:50 AM)
Low43 °F (Oct 22, 12:20 AM)46% (Oct 14, 2:50 PM)29.53 "Hg (Oct 21, 4:20 PM)
Average56 °F82%29.93 "Hg
* Reported Oct 9 8:20 PM — Oct 24 8:20 PM, Mülheim, Weather by CustomWeather, © 2014

Note: Actual official high and low records may vary slightly from our data, if they occured in-between our weather recording intervals... More about our weather records

Advertising

Mülheim weather history for previous 24 hours

 ConditionsComfort  
Time TempWeatherWind HumidityBarometerVisibility
8:20 PM
Oct 24
54 °FClear.8 mph77%30.07 "Hg10 mi
7:20 PM54 °FSunny.7 mph72%30.07 "Hg10 mi
6:50 PM54 °FSunny.6 mph72%30.07 "Hg10 mi
6:20 PM55 °FSunny.7 mph67%30.07 "Hg10 mi
5:50 PM55 °FSunny.6 mph72%30.09 "Hg10 mi
5:20 PM55 °FPartly sunny.8 mph67%30.09 "HgN/A
4:50 PM55 °FPartly sunny.9 mph67%30.09 "HgN/A
4:20 PM57 °FPartly sunny.9 mph59%30.09 "HgN/A
3:50 PM57 °FPartly sunny.9 mph59%30.09 "HgN/A
3:20 PM57 °FPartly sunny.8 mph63%30.09 "HgN/A
2:50 PM57 °FPartly sunny.7 mph63%30.12 "HgN/A
2:20 PM57 °FBroken clouds.6 mph67%30.12 "HgN/A
1:50 PM57 °FBroken clouds.7 mph63%30.12 "HgN/A
1:20 PM55 °FScattered clouds.7 mph67%30.15 "HgN/A
12:50 PM55 °FScattered clouds.8 mph67%30.15 "HgN/A
12:20 PM55 °FPartly sunny.9 mph67%30.15 "HgN/A
11:50 AM55 °FScattered clouds.10 mph67%30.15 "HgN/A
11:20 AM55 °FScattered clouds.9 mph72%30.15 "HgN/A
10:50 AM55 °FScattered clouds.10 mph72%30.18 "HgN/A
10:20 AM54 °FScattered clouds.8 mph77%30.18 "HgN/A
9:50 AM50 °FScattered clouds.7 mph88%30.18 "HgN/A
9:20 AM50 °FPartly sunny.7 mph88%30.18 "HgN/A
8:50 AM50 °FPassing clouds.8 mph88%30.18 "HgN/A
8:20 AM50 °FPassing clouds.7 mph88%30.18 "HgN/A
7:50 AM50 °FPartly cloudy.7 mph88%30.18 "HgN/A
7:20 AM50 °FPartly cloudy.6 mph88%30.18 "HgN/A
6:50 AM50 °FOvercast.7 mph88%30.18 "HgN/A
6:20 AM50 °FOvercast.7 mph88%30.18 "HgN/A
5:50 AM52 °FOvercast.6 mph82%30.18 "HgN/A
5:20 AM50 °FOvercast.6 mph88%30.18 "HgN/A
4:50 AM50 °FOvercast.8 mph94%30.18 "HgN/A
4:20 AM50 °FOvercast.7 mph94%30.18 "HgN/A
3:50 AM50 °FOvercast.7 mph94%30.18 "HgN/A
3:20 AM50 °FOvercast.8 mph94%30.18 "HgN/A
2:50 AM52 °FOvercast.7 mph88%30.18 "HgN/A
2:20 AM52 °FOvercast.8 mph88%30.21 "HgN/A
1:50 AM52 °FOvercast.5 mph88%30.21 "HgN/A
1:20 AM52 °FOvercast.6 mph88%30.21 "HgN/A
12:50 AM52 °FOvercast.5 mph88%30.21 "HgN/A
12:20 AM52 °FOvercast.5 mph88%30.21 "HgN/A
11:50 PM
Oct 23
52 °FOvercast.3 mph88%30.21 "HgN/A
11:20 PM52 °FOvercast.5 mph88%30.21 "HgN/A
10:50 PM52 °FOvercast.6 mph88%30.21 "HgN/A
10:20 PM52 °FPassing clouds.6 mph88%30.21 "HgN/A
9:50 PM54 °FOvercast.7 mph82%30.21 "HgN/A
9:20 PM54 °FOvercast.7 mph82%30.21 "HgN/A
Weather by CustomWeather, © 2014

See weather overviewHow to use our weather pages